Bei Facebook empfehlenBei Twitter postenGoogle plusPinterest

Das Wetter im Erzgebirge am 06.01.2017

Wetter und Klima am 06.01.2017 Holzhau im Erzgebirge (630m ü.NN)
Letzte gemessene Temperatur und Uhrzeit der Messung23:45:00 Uhr-13.10 °C
Temperatur (Maximum / Höchstwert) und Uhrzeit der Messung13:15:00 Uhr-9.30 °C
Temperatur (Minimum / Tiefstwert) und Uhrzeit der Messung23:45:00-13.10 °C
Errechneter Absolutwert der Temperaturschwankungen zwischen Tmin und Tmax des Tages3.80 K
Errechnete Tagesmitteltemperatur-10.79792 °C
Gesamt - Niederschlag des Tages (in flüssiger Form)0.00 Liter / m²
Luftdruck (Maximum / Höchstwert) und Zeitpunkt der Messung17:00:00 Uhr1030.80 hPa
Luftdruck (Minimum / Tiefstwert) und Zeitpunkt der Messung00:15:00 Uhr1026.60 hPa
Errechneter Absolutwert der Luftdruckschwankungen des Tages4.20 hPa
Höchste gemessene Windgeschwindigkeit und Uhrzeit der Messung23:45:00 Uhr0.00 km/h
Errechnete Windhäufigkeit in Relation zu den Messwerten des Tages0.00000 %
Niedrigste Windkühle (Windchill) und Zeitpunkt der Messung23:45:00 Uhr-13.10 °C
Taupunkt (Maximum / Höchstwert) und Uhrzeit der Messung14:45:00 Uhr-11.50 °C
Taupunkt (Minimum / Tiefstwert) und Uhrzeit der Messung23:45:00-14.90 °C
Anzahl der automatisch eingelesenen Messwerte 96

Detaillierte Wetter- und Klima- Messwerte für den 06.01.2017 in Holzhau im Erzgebirge (630m ü.NN)
ZeitTemperaturLuftdruckRel. LuftfeuchteWindWindrichtungWindchillTaupunktNiederschlag l/m²
23:45:00-13.10 °C1029.90 hPa88.00 %-14.90 °C 
23:30:00-12.70 °C1030.10 hPa88.00 %-14.50 °C 
23:15:00-12.20 °C1030.00 hPa88.00 %-14.00 °C 
23:00:00-11.90 °C1030.20 hPa89.00 %-13.50 °C 
22:45:00-11.80 °C1030.20 hPa89.00 %-13.40 °C 
22:30:00-11.80 °C1030.30 hPa89.00 %-13.40 °C 
22:15:00-11.80 °C1030.30 hPa89.00 %-13.40 °C 
22:00:00-11.70 °C1030.30 hPa89.00 %-13.30 °C 
21:45:00-11.60 °C1030.20 hPa89.00 %-13.20 °C 
21:30:00-11.60 °C1030.30 hPa89.00 %-13.20 °C 
21:15:00-11.50 °C1030.20 hPa89.00 %-13.10 °C 
21:00:00-11.40 °C1030.20 hPa89.00 %-13.00 °C 
20:45:00-11.10 °C1030.10 hPa89.00 %-12.70 °C 
20:30:00-11.10 °C1030.40 hPa89.00 %-12.70 °C 
20:15:00-11.00 °C1030.30 hPa89.00 %-12.60 °C 
20:00:00-10.90 °C1030.50 hPa89.00 %-12.50 °C 
19:45:00-10.90 °C1030.50 hPa89.00 %-12.50 °C 
19:30:00-10.90 °C1030.40 hPa89.00 %-12.50 °C 
19:15:00-10.80 °C1030.40 hPa89.00 %-12.40 °C 
19:00:00-10.70 °C1030.40 hPa89.00 %-12.30 °C 
18:45:00-10.70 °C1030.50 hPa89.00 %-12.30 °C 
18:30:00-10.70 °C1030.60 hPa89.00 %-12.30 °C 
18:15:00-10.70 °C1030.60 hPa88.00 %-12.50 °C 
18:00:00-10.70 °C1030.50 hPa88.00 %-12.50 °C 
17:45:00-10.70 °C1030.50 hPa88.00 %-12.50 °C 
17:30:00-10.70 °C1030.60 hPa88.00 %-12.50 °C 
17:15:00-10.60 °C1030.60 hPa88.00 %-12.40 °C 
17:00:00-10.60 °C1030.80 hPa88.00 %-12.40 °C 
16:45:00-10.50 °C1030.70 hPa88.00 %-12.30 °C 
16:30:00-10.40 °C1030.80 hPa88.00 %-12.20 °C 
16:15:00-10.20 °C1030.60 hPa87.00 %-12.20 °C 
16:00:00-10.10 °C1030.50 hPa87.00 %-12.10 °C 
15:45:00-9.90 °C1030.50 hPa87.00 %-11.90 °C 
15:30:00-9.70 °C1030.30 hPa86.00 %-11.80 °C 
15:15:00-9.60 °C1030.50 hPa86.00 %-11.70 °C 
15:00:00-9.50 °C1030.20 hPa86.00 %-11.60 °C 
14:45:00-9.40 °C1030.20 hPa86.00 %-11.50 °C 
14:30:00-9.40 °C1030.20 hPa86.00 %-11.50 °C 
14:15:00-9.50 °C1030.10 hPa86.00 %-11.60 °C 
14:00:00-9.50 °C1030.10 hPa86.00 %-11.60 °C 
13:45:00-9.60 °C1029.80 hPa85.00 %-11.90 °C 
13:30:00-9.50 °C1029.80 hPa85.00 %-11.80 °C 
13:15:00-9.30 °C1029.90 hPa85.00 %-11.60 °C 
13:00:00-9.60 °C1030.10 hPa86.00 %-11.70 °C 
12:45:00-9.60 °C1030.20 hPa86.00 %-11.70 °C 
12:30:00-9.70 °C1030.10 hPa86.00 %-11.80 °C 
12:15:00-9.70 °C1030.20 hPa86.00 %-11.80 °C 
12:00:00-9.70 °C1030.40 hPa86.00 %-11.80 °C 
11:45:00-9.80 °C1030.30 hPa87.00 %-11.80 °C 
11:30:00-10.10 °C1030.20 hPa87.00 %-12.10 °C 
11:15:00-10.20 °C1030.40 hPa87.00 %-12.20 °C 
11:00:00-10.20 °C1030.40 hPa87.00 %-12.20 °C 
10:45:00-10.40 °C1030.50 hPa88.00 %-12.20 °C 
10:30:00-10.70 °C1030.50 hPa88.00 %-12.50 °C 
10:15:00-10.80 °C1030.40 hPa88.00 %-12.60 °C 
10:00:00-10.90 °C1030.40 hPa88.00 %-12.70 °C 
09:45:00-11.10 °C1030.30 hPa89.00 %-12.70 °C 
09:30:00-11.20 °C1030.20 hPa89.00 %-12.80 °C 
09:15:00-11.30 °C1030.20 hPa89.00 %-12.90 °C 
09:00:00-11.30 °C1030.30 hPa89.00 %-12.90 °C 
08:45:00-11.20 °C1030.20 hPa89.00 %-12.80 °C 
08:30:00-11.30 °C1030.20 hPa89.00 %-12.90 °C 
08:15:00-11.30 °C1029.90 hPa89.00 %-12.90 °C 
08:00:00-11.40 °C1029.70 hPa89.00 %-13.00 °C 
07:45:00-11.40 °C1029.70 hPa89.00 %-13.00 °C 
07:30:00-11.30 °C1029.40 hPa89.00 %-12.90 °C 
07:15:00-11.30 °C1029.10 hPa89.00 %-12.90 °C 
07:00:00-11.20 °C1029.10 hPa89.00 %-12.80 °C 
06:45:00-11.20 °C1029.00 hPa89.00 %-12.80 °C 
06:30:00-11.20 °C1028.80 hPa89.00 %-12.80 °C 
06:15:00-11.20 °C1028.70 hPa89.00 %-12.80 °C 
06:00:00-11.10 °C1028.60 hPa89.00 %-12.70 °C 
05:45:00-11.10 °C1028.30 hPa89.00 %-12.70 °C 
05:30:00-11.10 °C1028.10 hPa89.00 %-12.70 °C 
05:15:00-11.10 °C1028.30 hPa89.00 %-12.70 °C 
05:00:00-11.10 °C1028.30 hPa89.00 %-12.70 °C 
04:45:00-11.20 °C1028.20 hPa89.00 %-12.80 °C 
04:30:00-11.20 °C1027.80 hPa89.00 %-12.80 °C 
04:15:00-11.20 °C1027.80 hPa89.00 %-12.80 °C 
04:00:00-11.10 °C1027.60 hPa89.00 %-12.70 °C 
03:45:00-11.20 °C1027.70 hPa89.00 %-12.80 °C 
03:30:00-11.10 °C1027.60 hPa89.00 %-12.70 °C 
03:15:00-11.10 °C1027.50 hPa89.00 %-12.70 °C 
03:00:00-11.10 °C1027.40 hPa89.00 %-12.70 °C 
02:45:00-11.10 °C1027.40 hPa89.00 %-12.70 °C 
02:30:00-11.10 °C1027.40 hPa89.00 %-12.70 °C 
02:15:00-11.10 °C1027.40 hPa89.00 %-12.70 °C 
02:00:00-11.00 °C1027.30 hPa89.00 %-12.60 °C 
01:45:00-10.90 °C1027.20 hPa89.00 %-12.50 °C 
01:30:00-10.90 °C1026.90 hPa89.00 %-12.50 °C 
01:15:00-10.80 °C1027.00 hPa89.00 %-12.40 °C 
01:00:00-10.70 °C1027.10 hPa89.00 %-12.30 °C 
00:45:00-10.70 °C1027.10 hPa89.00 %-12.30 °C 
00:30:00-10.50 °C1026.80 hPa89.00 %-12.10 °C 
00:15:00-10.40 °C1026.60 hPa89.00 %-12.00 °C 
00:00:00-10.40 °C1026.70 hPa89.00 %-12.00 °C 

Permanenter Link zu dieser Seite: Wetter im Erzgebirge am 06.01.2017
Performance-Info: Die Erstellung der Seite / Statistik(en) / Tabelle(n) erforderte 5 Datenbankserver-Abfrage(n) und dauerte 134 Millisekunden. (Dieser Messwert ist von der Gesamt-Auslastung des Servers abhängig.)
Erzgebirge - Wetter | Erzgebirge - Wetter (Mobilgeräte) | Komplette Klimadatenbank